[[{"header":{"parameterUnit":"m.s-1","parameterCategory":2,"la1":30.2991,"la2":30.254,"lo1":-89.0895,"lo2":-89.0444,"dy":0.0017,"dx":0.0017,"nx":28,"ny":28,"refTime":"2023-11-14T03:00:00:Z","depth":"0","parameterNumber":2,"parameterNumberName":"U-component_of_CURRENTS"},"data":[0,0,0,0,0,0,0,0,0,0,0,0,0,0,0,0,0,0,0,0,0,0,0,0,0,0,0,0,0,0,0,0,0,0,0,0,0,0,0,0,0,0,0,0,0,0,0,0,0,0,0,0,0,0,0,0,0,0,-0.2806,-0.2807,0,-0.2814,-0.2814,-0.2814,-0.2779,-0.2778,-0.2778,-0.2777,-0.2734,-0.2734,-0.2733,0,0,0,0,0,0,0,0,0,0,0,0,0,-0.274,-0.2741,-0.2806,-0.2807,-0.2807,-0.2814,-0.2814,-0.2814,-0.2779,-0.2778,-0.2778,-0.2777,-0.2734,-0.2734,-0.2733,0,0,0,0,0,0,0,0,0,0,0,0,0,-0.2757,-0.2742,-0.2806,-0.2794,-0.2793,-0.2814,-0.2814,-0.2814,-0.2779,-0.2778,-0.2777,-0.2776,-0.2735,-0.2734,-0.2733,-0.2748,0,0,-0.2731,-0.273,0,0,0,0,0,0,0,0,-0.2756,-0.2759,-0.2795,-0.2795,-0.2794,-0.2798,-0.2775,-0.2791,-0.278,-0.2781,-0.2777,-0.2776,-0.2754,-0.2752,-0.2751,-0.2746,-0.2744,-0.2731,-0.273,-0.273,-0.273,0,0,0,0,0,0,0,-0.2755,-0.2758,-0.2806,-0.2796,-0.2795,-0.278,-0.2782,-0.2778,-0.2769,-0.278,-0.2779,-0.2786,-0.2753,-0.2752,-0.2749,-0.2744,-0.2731,-0.273,-0.2729,-0.2729,-0.2754,-0.2755,0,0,0,0,0,0,-0.2764,-0.2758,-0.2805,-0.2806,-0.2776,-0.2783,-0.2784,-0.2795,-0.277,-0.2767,-0.2787,-0.2784,-0.2753,-0.275,-0.2748,-0.2775,-0.273,-0.2729,-0.2729,-0.2753,-0.2754,-0.2756,0,0,0,0,0,0,-0.2763,-0.2768,-0.2805,-0.2784,-0.2789,-0.2786,-0.2798,-0.2795,-0.2793,-0.2776,-0.2771,-0.2787,-0.2752,-0.2749,-0.2749,-0.2773,-0.2729,-0.2728,-0.2752,-0.2753,-0.2755,-0.2823,0,0,0,0,0,0,-0.2761,-0.2768,-0.2775,-0.2785,-0.279,-0.2829,-0.2799,-0.2796,-0.2801,-0.2798,-0.2775,-0.277,-0.2751,-0.2751,-0.2749,-0.2771,-0.2727,-0.275,-0.2752,-0.2754,-0.282,-0.2827,-0.2834,0,0,0,0,0,-0.2758,-0.2777,-0.2775,-0.2781,-0.2801,-0.283,-0.2831,-0.2822,-0.2802,-0.2813,-0.2793,-0.2771,-0.2763,-0.2751,-0.2748,-0.2771,-0.2749,-0.2752,-0.2754,-0.2817,-0.2826,-0.2833,0,0,0,0,0,0,-0.2747,-0.2776,-0.2774,-0.2798,-0.2817,-0.2826,-0.2833,-0.2828,-0.2821,-0.2811,-0.2784,-0.2779,-0.2791,-0.2772,-0.276,-0.2785,-0.2753,-0.2755,-0.2801,-0.281,-0.2816,-0.2814,-0.2727,0,0,0,0,0,-0.2752,-0.277,-0.2796,-0.2813,-0.2826,-0.2829,-0.2836,-0.2836,-0.2835,-0.283,-0.2815,-0.2801,-0.2802,-0.2797,-0.2793,-0.2805,-0.2787,-0.2818,-0.2825,-0.2831,-0.2828,-0.2828,-0.2834,-0.2764,-0.2764,-0.2764,0,0,-0.2749,-0.2768,-0.2776,-0.2812,-0.282,-0.2852,-0.283,-0.285,-0.287,-0.2828,-0.2838,-0.2826,-0.2811,-0.2827,-0.283,-0.2811,-0.2844,-0.2834,-0.284,-0.2832,-0.2831,-0.2838,-0.2844,-0.2766,-0.2765,-0.2765,0,0,-0.2761,-0.2775,-0.2797,-0.2824,-0.2853,-0.2864,-0.2874,-0.289,-0.289,-0.2907,-0.2883,-0.2883,-0.2879,-0.2876,-0.2873,-0.2916,-0.2884,-0.2916,-0.2946,-0.2947,-0.2953,-0.2957,-0.2952,-0.2956,-0.2916,-0.2916,-0.2916,0,-0.2754,-0.2789,-0.2807,-0.2844,-0.2866,-0.2874,-0.2907,-0.292,-0.2932,-0.2937,-0.2918,-0.292,-0.2904,-0.2927,-0.2937,-0.2932,-0.2922,-0.2916,-0.2956,-0.296,-0.2964,-0.2957,-0.296,-0.292,-0.2919,-0.2919,-0.2919,0,-0.2788,-0.2819,-0.2837,-0.2885,-0.2915,-0.2944,-0.2976,-0.2995,-0.2992,-0.3,-0.3018,-0.2999,-0.2995,-0.2999,-0.2977,-0.3002,-0.2984,-0.2968,-0.2934,-0.2975,-0.2965,-0.2968,-0.2925,-0.2924,-0.2923,-0.2922,0,0,-0.2753,-0.2842,-0.2846,-0.2878,-0.2938,-0.2965,-0.3012,-0.3052,-0.3073,-0.308,-0.3099,-0.3101,-0.3081,-0.3076,-0.3056,-0.3052,-0.3068,-0.3018,-0.3017,-0.3013,-0.3067,-0.3024,-0.3021,-0.3059,-0.306,-0.306,-0.3053,0,-0.2766,-0.2837,-0.2881,-0.2943,-0.298,-0.3021,-0.3065,-0.3104,-0.312,-0.3142,-0.3135,-0.3142,-0.3116,-0.3107,-0.3106,-0.3075,-0.3075,-0.3071,-0.3028,-0.3026,-0.2982,-0.3023,-0.2949,-0.2933,-0.3055,-0.3055,-0.3055,0,-0.2774,-0.2824,-0.2887,-0.2975,-0.2994,-0.3031,-0.3094,-0.3133,-0.3178,-0.3191,-0.3204,-0.3196,-0.3198,-0.3161,-0.3145,-0.3142,-0.3109,-0.3084,-0.3083,-0.3016,-0.2987,-0.291,-0.2931,-0.2916,-0.3058,-0.3057,-0.3057,0,-0.2727,-0.2823,-0.2869,-0.2901,-0.3002,-0.3029,-0.3071,-0.3132,-0.3167,-0.3205,-0.3228,-0.3238,-0.3233,-0.3206,-0.3159,-0.315,-0.3131,-0.3114,-0.305,-0.3046,-0.296,-0.2947,-0.2956,-0.3102,-0.3102,-0.3102,-0.3102,0,-0.2717,-0.2752,-0.2848,-0.2873,-0.2922,-0.3,-0.3046,-0.3093,-0.3159,-0.3191,-0.3233,-0.3251,-0.3241,-0.3231,-0.3181,-0.3124,-0.3153,-0.3059,-0.3044,-0.2982,-0.2973,-0.2934,-0.2929,-0.3102,-0.3102,-0.3102,-0.3102,0,-0.2648,-0.2719,-0.277,-0.287,-0.2898,-0.292,-0.302,-0.3051,-0.3133,-0.3172,-0.3184,-0.3259,-0.3248,-0.3237,-0.3194,-0.3149,-0.3046,-0.3066,-0.2992,-0.2968,-0.2884,-0.2885,-0.2829,-0.2756,-0.2995,-0.2994,-0.2993,0,-0.2618,-0.2637,-0.2732,-0.2751,-0.2788,-0.2846,-0.2883,-0.3,-0.3033,-0.3161,-0.3161,-0.3211,-0.3219,-0.3177,-0.3107,-0.3039,-0.3001,-0.2927,-0.2895,-0.2875,-0.2865,-0.2846,-0.2787,-0.2812,-0.2809,-0.2808,-0.2806,0,-0.2533,-0.2561,-0.2596,-0.2644,-0.2681,-0.2731,-0.279,-0.2836,-0.2961,-0.3027,-0.3098,-0.3131,-0.3138,-0.3062,-0.2998,-0.293,-0.2863,-0.2885,-0.2884,-0.2739,-0.2698,-0.2622,-0.2826,-0.2789,-0.2791,-0.2792,-0.2793,-0.2794,-0.2437,-0.2435,-0.2475,-0.2504,-0.2549,-0.2573,-0.2575,-0.2671,-0.2732,-0.281,-0.2936,-0.2983,-0.3001,-0.2911,-0.2853,-0.2744,-0.2736,-0.2666,-0.2674,-0.2661,-0.2572,-0.2739,-0.2674,-0.2675,-0.2676,-0.2676,-0.2677,0,-0.2305,-0.2315,-0.2335,-0.2365,-0.235,-0.2419,-0.2473,-0.2456,-0.2487,-0.2636,-0.27,-0.2809,-0.2749,-0.2765,-0.2691,-0.258,-0.2498,-0.2503,-0.2466,-0.2417,-0.2582,-0.2556,-0.2439,-0.2439,-0.2439,-0.2439,-0.2439,-0.2439,-0.2233,-0.2194,-0.2206,-0.2136,-0.2157,-0.2088,-0.2083,-0.2096,-0.217,-0.2274,-0.2415,-0.2589,-0.2611,-0.2771,-0.2648,-0.2517,-0.2421,-0.2334,-0.2327,-0.2471,-0.2488,-0.2503,-0.2479,-0.2348,-0.2348,-0.2104,-0.2102,-0.2101]},{"header":{"parameterUnit":"m.s-1","parameterCategory":2,"la1":30.2991,"la2":30.254,"lo1":-89.0895,"lo2":-89.0444,"dy":0.0017,"dx":0.0017,"nx":28,"ny":28,"refTime":"2023-11-14T03:00:00:Z","depth":"0","parameterNumber":3,"parameterNumberName":"V-component_of_CURRENTS"},"data":[0,0,0,0,0,0,0,0,0,0,0,0,0,0,0,0,0,0,0,0,0,0,0,0,0,0,0,0,0,0,0,0,0,0,0,0,0,0,0,0,0,0,0,0,0,0,0,0,0,0,0,0,0,0,0,0,0,0,-0.0377,-0.0376,0,-0.0292,-0.0291,-0.0289,-0.0234,-0.0234,-0.0233,-0.0233,-0.0122,-0.012,-0.0117,0,0,0,0,0,0,0,0,0,0,0,0,0,-0.0438,-0.0437,-0.0377,-0.0376,-0.0375,-0.0292,-0.029,-0.0289,-0.0234,-0.0234,-0.0233,-0.0233,-0.0123,-0.012,-0.0117,0,0,0,0,0,0,0,0,0,0,0,0,0,-0.0388,-0.0437,-0.0377,-0.0338,-0.0334,-0.0292,-0.029,-0.0289,-0.0234,-0.0234,-0.0233,-0.0233,-0.0124,-0.012,-0.0116,-0.01,0,0,-0.0104,-0.0102,0,0,0,0,0,0,0,0,-0.0391,-0.0385,-0.0345,-0.0341,-0.0336,-0.0274,-0.0271,-0.0225,-0.0234,-0.0271,-0.0233,-0.0233,-0.0171,-0.0163,-0.0148,-0.0095,-0.009,-0.0104,-0.0101,-0.0099,-0.0098,0,0,0,0,0,0,0,-0.0394,-0.0388,-0.0343,-0.0344,-0.0338,-0.0306,-0.0299,-0.0262,-0.0224,-0.0268,-0.0264,-0.0256,-0.0168,-0.0152,-0.0145,-0.0089,-0.0104,-0.01,-0.0098,-0.0096,-0.0006,-0.0006,0,0,0,0,0,0,-0.0409,-0.0392,-0.0345,-0.034,-0.0363,-0.0305,-0.0297,-0.0293,-0.0225,-0.0214,-0.0256,-0.0253,-0.0159,-0.0149,-0.014,-0.0113,-0.01,-0.0096,-0.0093,-0.0006,-0.0006,-0.0006,0,0,0,0,0,0,-0.0411,-0.0406,-0.0349,-0.0364,-0.0355,-0.0305,-0.0301,-0.0292,-0.0275,-0.0216,-0.0205,-0.0248,-0.0158,-0.0146,-0.0108,-0.0109,-0.0094,-0.009,-0.0006,-0.0006,-0.0006,-0.0061,0,0,0,0,0,0,-0.0413,-0.0408,-0.0412,-0.0366,-0.0354,-0.0332,-0.0301,-0.0291,-0.027,-0.0266,-0.0205,-0.0195,-0.0157,-0.0114,-0.0104,-0.0103,-0.0087,-0.0006,-0.0006,-0.0006,-0.006,-0.0063,-0.0067,0,0,0,0,0,-0.0416,-0.0427,-0.0413,-0.0407,-0.0362,-0.0333,-0.0324,-0.0286,-0.0271,-0.0268,-0.0224,-0.0196,-0.0107,-0.0111,-0.0099,-0.0097,-0.0006,-0.0006,-0.0006,-0.0058,-0.0063,-0.0066,0,0,0,0,0,0,-0.0456,-0.0421,-0.0405,-0.0405,-0.0374,-0.0324,-0.0319,-0.0292,-0.0255,-0.0251,-0.0194,-0.0181,-0.0149,-0.0116,-0.0121,-0.0071,-0.0053,-0.0051,-0.0096,-0.01,-0.0104,-0.0117,-0.0084,0,0,0,0,0,-0.0468,-0.0468,-0.0425,-0.0427,-0.0414,-0.0368,-0.0352,-0.0326,-0.0286,-0.027,-0.0226,-0.018,-0.014,-0.0116,-0.0079,-0.0049,-0.0011,-0.004,-0.0044,-0.0047,-0.005,0.0007,0.0009,-0.0007,-0.0007,-0.0007,0,0,-0.0484,-0.0466,-0.0465,-0.0435,-0.0409,-0.0399,-0.0357,-0.034,-0.0326,-0.0264,-0.0236,-0.0193,-0.0136,-0.0104,-0.0087,-0.0075,-0.0023,-0.0047,-0.005,-0.0051,0.0008,0.0009,0.001,-0.0007,-0.0007,-0.0007,0,0,-0.0524,-0.0501,-0.0516,-0.0493,-0.046,-0.0428,-0.0426,-0.0378,-0.0352,-0.0319,-0.0271,-0.0227,-0.017,-0.0124,-0.0095,-0.0095,-0.0047,-0.0087,-0.0109,-0.0054,-0.0052,-0.005,-0.0003,0.0003,-0.0084,-0.0084,-0.0084,0,-0.0547,-0.0557,-0.0515,-0.052,-0.0506,-0.0446,-0.0454,-0.0416,-0.036,-0.0338,-0.0321,-0.0224,-0.0178,-0.0125,-0.0125,-0.0102,-0.0068,-0.0099,-0.0059,-0.0056,-0.0053,-0.0005,0.0003,-0.0087,-0.0087,-0.0086,-0.0086,0,-0.0593,-0.0598,-0.0604,-0.0589,-0.0566,-0.0564,-0.0506,-0.048,-0.0441,-0.0397,-0.0341,-0.0271,-0.0212,-0.019,-0.0156,-0.0111,-0.0093,-0.0074,-0.0051,-0.0055,-0.0004,0.0005,-0.0091,-0.009,-0.0089,-0.0088,0,0,-0.0653,-0.0643,-0.0644,-0.0654,-0.0604,-0.0596,-0.0564,-0.052,-0.05,-0.0433,-0.0399,-0.032,-0.0275,-0.0238,-0.0183,-0.0131,-0.0079,-0.01,-0.0095,-0.0058,0.0037,0.0094,0.011,-0.0054,-0.0052,-0.0051,0.0063,0,-0.0704,-0.0744,-0.071,-0.0733,-0.0747,-0.0677,-0.0653,-0.0598,-0.0539,-0.0487,-0.0394,-0.0344,-0.0294,-0.0266,-0.0204,-0.0107,-0.0057,-0.0112,0.004,0.0045,0.0092,0.0123,0.017,0.028,0.0072,0.0074,0.0075,0,-0.0759,-0.078,-0.0821,-0.0814,-0.0811,-0.0803,-0.0752,-0.0723,-0.0621,-0.0574,-0.0493,-0.0415,-0.0316,-0.0282,-0.0116,-0.0155,-0.007,0.0004,0.0011,0.009,0.012,0.0253,0.0306,0.0468,0.009,0.0089,0.0087,0,-0.0833,-0.0853,-0.0895,-0.0891,-0.0868,-0.0862,-0.0837,-0.0752,-0.0727,-0.0624,-0.059,-0.0459,-0.0389,-0.0263,-0.0095,-0.0108,0.0088,0.0091,0.0221,0.0226,0.0311,0.0321,0.0537,0.0195,0.0195,0.0195,0.0194,0,-0.0901,-0.0932,-0.0936,-0.0958,-0.0996,-0.094,-0.0943,-0.0893,-0.0813,-0.0783,-0.0646,-0.0585,-0.0382,-0.0237,-0.0103,0.0104,0.0088,0.0229,0.0267,0.0293,0.03,0.0481,0.0541,0.0199,0.0198,0.0197,0.0196,0,-0.0974,-0.0977,-0.1029,-0.1031,-0.1035,-0.1059,-0.103,-0.1023,-0.0934,-0.0886,-0.0857,-0.0669,-0.0465,-0.0253,-0.0024,0.0101,0.0394,0.0351,0.0369,0.0407,0.067,0.0724,0.0975,0.1053,0.0511,0.0514,0.0515,0,-0.1017,-0.1053,-0.1099,-0.1137,-0.1143,-0.1163,-0.1171,-0.1098,-0.108,-0.0936,-0.0919,-0.0702,-0.0532,-0.0154,0.012,0.0395,0.0503,0.0576,0.0562,0.0711,0.0799,0.0836,0.0884,0.0652,0.0654,0.0657,0.0658,0,-0.1095,-0.1109,-0.1154,-0.1239,-0.1274,-0.1308,-0.1306,-0.1309,-0.1207,-0.1133,-0.0988,-0.0833,-0.043,-0.0054,0.0321,0.0472,0.0711,0.063,0.0792,0.0941,0.099,0.1073,0.0539,0.0679,0.0677,0.0676,0.0674,0.0674,-0.1144,-0.1203,-0.1264,-0.134,-0.1389,-0.1431,-0.1455,-0.1419,-0.1374,-0.1237,-0.106,-0.0796,-0.0213,0.0346,0.0537,0.0958,0.0894,0.1062,0.1119,0.1144,0.1224,0.0731,0.0907,0.0906,0.0906,0.0905,0.0904,0,-0.1209,-0.1272,-0.1358,-0.1443,-0.1513,-0.1507,-0.153,-0.1521,-0.1467,-0.1267,-0.1077,-0.0455,0.0103,0.0607,0.1244,0.1447,0.1467,0.1531,0.1601,0.1626,0.1211,0.1221,0.1464,0.1464,0.1464,0.1464,0.1464,0.1464,-0.1243,-0.1345,-0.1396,-0.1529,-0.1585,-0.1651,-0.1665,-0.1612,-0.148,-0.1155,-0.0807,-0.0503,0.027,0.1349,0.1913,0.1923,0.2073,0.2057,0.2126,0.1848,0.1808,0.1769,0.1796,0.2156,0.2157,0.2523,0.2527,0.253]}],[{"header":{"parameterUnit":"m.s-1","parameterCategory":2,"la1":30.2991,"la2":30.254,"lo1":-89.0895,"lo2":-89.0444,"dy":0.0017,"dx":0.0017,"nx":28,"ny":28,"refTime":"2023-11-14T03:00:00:Z","depth":"2","parameterNumber":2,"parameterNumberName":"U-component_of_CURRENTS"},"data":[0,0,0,0,0,0,0,0,0,0,0,0,0,0,0,0,0,0,0,0,0,0,0,0,0,0,0,0,0,0,0,0,0,0,0,0,0,0,0,0,0,0,0,0,0,0,0,0,0,0,0,0,0,0,0,0,0,0,-0.2656,-0.2657,0,-0.2667,-0.2667,-0.2666,-0.2638,-0.2637,-0.2637,-0.2636,-0.26,-0.26,-0.26,0,0,0,0,0,0,0,0,0,0,0,0,0,-0.2593,-0.2594,-0.2656,-0.2657,-0.2657,-0.2667,-0.2667,-0.2666,-0.2638,-0.2637,-0.2637,-0.2636,-0.2601,-0.26,-0.2599,0,0,0,0,0,0,0,0,0,0,0,0,0,-0.261,-0.2594,-0.2656,-0.2647,-0.2647,-0.2667,-0.2667,-0.2666,-0.2638,-0.2637,-0.2637,-0.2636,-0.2601,-0.26,-0.2599,-0.2612,0,0,-0.2597,-0.2597,0,0,0,0,0,0,0,0,-0.2609,-0.2612,-0.2648,-0.2648,-0.2647,-0.2653,-0.2631,-0.2647,-0.2638,-0.2638,-0.2636,-0.2635,-0.2617,-0.2615,-0.2614,-0.261,-0.2608,-0.2597,-0.2597,-0.2597,-0.2596,0,0,0,0,0,0,0,-0.2608,-0.2611,-0.2657,-0.2649,-0.2648,-0.2636,-0.2637,-0.2634,-0.2628,-0.2638,-0.2636,-0.2644,-0.2616,-0.2615,-0.2613,-0.2608,-0.2597,-0.2597,-0.2596,-0.2596,-0.2623,-0.2625,0,0,0,0,0,0,-0.2616,-0.2611,-0.2657,-0.2657,-0.263,-0.2638,-0.2639,-0.2649,-0.2629,-0.2627,-0.2644,-0.2642,-0.2616,-0.2614,-0.2611,-0.2642,-0.2597,-0.2596,-0.2596,-0.2622,-0.2624,-0.2625,0,0,0,0,0,0,-0.2615,-0.262,-0.2656,-0.2637,-0.2641,-0.2641,-0.2652,-0.265,-0.2651,-0.2635,-0.2631,-0.2648,-0.2616,-0.2612,-0.2616,-0.264,-0.2596,-0.2595,-0.2621,-0.2623,-0.2624,-0.2693,0,0,0,0,0,0,-0.2613,-0.262,-0.2627,-0.2638,-0.2642,-0.268,-0.2653,-0.2651,-0.2659,-0.2656,-0.2637,-0.2633,-0.2615,-0.2617,-0.2615,-0.2638,-0.2595,-0.262,-0.2622,-0.2624,-0.2689,-0.2697,-0.2703,0,0,0,0,0,-0.2611,-0.2628,-0.2627,-0.2633,-0.2653,-0.2681,-0.2683,-0.2676,-0.266,-0.2671,-0.2654,-0.2633,-0.2629,-0.2617,-0.2615,-0.2638,-0.2619,-0.2621,-0.2624,-0.2686,-0.2695,-0.2703,0,0,0,0,0,0,-0.2601,-0.2628,-0.2627,-0.265,-0.267,-0.2678,-0.2686,-0.2683,-0.2679,-0.2671,-0.2647,-0.2643,-0.2657,-0.2638,-0.2626,-0.2653,-0.2621,-0.2623,-0.2669,-0.2678,-0.2684,-0.2682,-0.2594,0,0,0,0,0,-0.2606,-0.2623,-0.2648,-0.2665,-0.2677,-0.2682,-0.269,-0.2691,-0.2692,-0.2689,-0.2677,-0.2665,-0.2667,-0.2664,-0.2661,-0.2674,-0.2656,-0.2687,-0.2694,-0.27,-0.2697,-0.2697,-0.2704,-0.2633,-0.2633,-0.2633,0,0,-0.2604,-0.2622,-0.263,-0.2664,-0.2673,-0.2703,-0.2684,-0.2706,-0.2726,-0.2687,-0.2701,-0.2691,-0.2676,-0.2693,-0.2698,-0.2679,-0.2714,-0.2704,-0.2709,-0.2702,-0.2701,-0.2708,-0.2714,-0.2635,-0.2635,-0.2634,0,0,-0.2616,-0.263,-0.2651,-0.2677,-0.2707,-0.2717,-0.2728,-0.2745,-0.2748,-0.2766,-0.2745,-0.2747,-0.2746,-0.2743,-0.274,-0.2783,-0.2753,-0.2785,-0.2815,-0.2817,-0.2822,-0.2827,-0.2822,-0.2826,-0.2785,-0.2786,-0.2786,0,-0.2611,-0.2644,-0.2661,-0.2696,-0.2718,-0.2728,-0.276,-0.2775,-0.2788,-0.2796,-0.2779,-0.2785,-0.2771,-0.2794,-0.2805,-0.28,-0.2791,-0.2786,-0.2825,-0.283,-0.2833,-0.2827,-0.2831,-0.2789,-0.2789,-0.2788,-0.2788,0,-0.2643,-0.2673,-0.2691,-0.2737,-0.2766,-0.2796,-0.2828,-0.2849,-0.2849,-0.2858,-0.2879,-0.2862,-0.2861,-0.2865,-0.2845,-0.287,-0.2853,-0.2838,-0.2804,-0.2844,-0.2836,-0.2838,-0.2794,-0.2793,-0.2792,-0.2791,0,0,-0.2612,-0.2696,-0.27,-0.273,-0.279,-0.2815,-0.2863,-0.2903,-0.2926,-0.2937,-0.2957,-0.2962,-0.2946,-0.2941,-0.2923,-0.292,-0.2938,-0.2888,-0.2887,-0.2883,-0.2938,-0.2894,-0.2892,-0.2929,-0.293,-0.293,-0.2925,0,-0.2625,-0.2692,-0.2733,-0.2794,-0.283,-0.2871,-0.2915,-0.2954,-0.2972,-0.2996,-0.2992,-0.3002,-0.2979,-0.2973,-0.2973,-0.2944,-0.2945,-0.294,-0.2899,-0.2897,-0.2853,-0.2893,-0.2653,-0.2625,-0.2926,-0.2927,-0.2927,0,-0.2633,-0.268,-0.2741,-0.2825,-0.2844,-0.2881,-0.2945,-0.2984,-0.303,-0.3046,-0.3062,-0.3056,-0.3061,-0.3026,-0.3013,-0.3011,-0.2979,-0.2955,-0.2954,-0.2887,-0.2857,-0.2631,-0.2616,-0.293,-0.293,-0.2929,-0.2929,0,-0.2589,-0.2681,-0.2726,-0.2756,-0.2854,-0.2882,-0.2923,-0.2985,-0.302,-0.3062,-0.3086,-0.3099,-0.3097,-0.3072,-0.3029,-0.302,-0.3004,-0.2985,-0.2922,-0.2918,-0.269,-0.2666,-0.2975,-0.2975,-0.2975,-0.2975,-0.2975,0,-0.258,-0.2614,-0.2706,-0.2731,-0.278,-0.2855,-0.2903,-0.2951,-0.3017,-0.3049,-0.3093,-0.3112,-0.3107,-0.3098,-0.3051,-0.2995,-0.3025,-0.2931,-0.2916,-0.271,-0.2688,-0.2929,-0.2924,-0.2974,-0.2974,-0.2975,-0.2975,0,-0.2515,-0.2583,-0.2633,-0.273,-0.2758,-0.2781,-0.288,-0.2911,-0.2993,-0.3033,-0.3047,-0.3121,-0.3113,-0.3105,-0.3064,-0.302,-0.2969,-0.2939,-0.27,-0.2658,-0.2877,-0.2876,-0.2871,-0.287,-0.2869,-0.2868,-0.2867,0,-0.2487,-0.2505,-0.2598,-0.2618,-0.2654,-0.2713,-0.275,-0.2864,-0.2896,-0.3022,-0.3022,-0.3075,-0.3078,-0.3039,-0.2945,-0.2871,-0.2936,-0.2628,-0.2572,-0.2882,-0.2868,-0.2868,-0.2869,-0.2294,-0.2288,-0.2284,-0.228,0,-0.2406,-0.2435,-0.2468,-0.2516,-0.2553,-0.2601,-0.2659,-0.2702,-0.2824,-0.2886,-0.2953,-0.2981,-0.2965,-0.2792,-0.272,-0.2636,-0.2624,-0.2538,-0.2903,-0.2376,-0.2342,-0.2327,-0.2345,-0.224,-0.2244,-0.2247,-0.2249,-0.2251,-0.2316,-0.2314,-0.2353,-0.2382,-0.2426,-0.2447,-0.2447,-0.2528,-0.2581,-0.2617,-0.2754,-0.2714,-0.2694,-0.2468,-0.2349,-0.2244,-0.2418,-0.229,-0.2301,-0.2318,-0.2271,-0.2238,-0.2108,-0.2111,-0.2113,-0.2116,-0.2118,0,-0.2186,-0.2199,-0.2218,-0.2246,-0.2227,-0.23,-0.2347,-0.2304,-0.2312,-0.2374,-0.2401,-0.2174,-0.2085,-0.2071,-0.1855,-0.1832,-0.178,-0.1751,-0.1667,-0.1708,-0.1745,-0.1666,-0.1343,-0.1341,-0.1339,-0.1337,0,0,-0.2116,-0.2076,-0.2086,-0.2015,-0.2038,-0.1961,-0.1953,-0.1912,-0.1909,-0.1841,-0.1818,-0.1961,-0.2024,-0.1681,-0.1598,-0.1442,-0.1557,-0.1369,-0.1988,-0.1929,-0.1963,-0.205,-0.1976,0,0,0,0,0]},{"header":{"parameterUnit":"m.s-1","parameterCategory":2,"la1":30.2991,"la2":30.254,"lo1":-89.0895,"lo2":-89.0444,"dy":0.0017,"dx":0.0017,"nx":28,"ny":28,"refTime":"2023-11-14T03:00:00:Z","depth":"2","parameterNumber":3,"parameterNumberName":"V-component_of_CURRENTS"},"data":[0,0,0,0,0,0,0,0,0,0,0,0,0,0,0,0,0,0,0,0,0,0,0,0,0,0,0,0,0,0,0,0,0,0,0,0,0,0,0,0,0,0,0,0,0,0,0,0,0,0,0,0,0,0,0,0,0,0,-0.0315,-0.0314,0,-0.0233,-0.0232,-0.0231,-0.0178,-0.0178,-0.0178,-0.0177,-0.007,-0.0067,-0.0065,0,0,0,0,0,0,0,0,0,0,0,0,0,-0.0372,-0.0372,-0.0315,-0.0314,-0.0313,-0.0233,-0.0232,-0.023,-0.0178,-0.0178,-0.0177,-0.0177,-0.0071,-0.0068,-0.0064,0,0,0,0,0,0,0,0,0,0,0,0,0,-0.0324,-0.0372,-0.0315,-0.0278,-0.0274,-0.0233,-0.0232,-0.023,-0.0178,-0.0178,-0.0177,-0.0177,-0.0072,-0.0068,-0.0064,-0.0047,0,0,-0.0052,-0.005,0,0,0,0,0,0,0,0,-0.0327,-0.0322,-0.0284,-0.028,-0.0276,-0.0216,-0.0212,-0.0168,-0.0178,-0.0214,-0.0177,-0.0177,-0.0117,-0.0109,-0.0094,-0.0042,-0.0037,-0.0052,-0.0049,-0.0047,-0.0046,0,0,0,0,0,0,0,-0.033,-0.0325,-0.0282,-0.0283,-0.0278,-0.0247,-0.024,-0.0204,-0.0167,-0.0211,-0.0207,-0.0199,-0.0114,-0.0098,-0.0091,-0.0036,-0.0052,-0.0048,-0.0046,-0.0044,0.0044,0.0044,0,0,0,0,0,0,-0.0345,-0.0328,-0.0284,-0.0279,-0.0302,-0.0246,-0.0238,-0.0235,-0.0168,-0.0158,-0.0199,-0.0197,-0.0105,-0.0096,-0.0087,-0.0061,-0.0047,-0.0044,-0.0041,0.0044,0.0044,0.0044,0,0,0,0,0,0,-0.0347,-0.0342,-0.0288,-0.0302,-0.0293,-0.0246,-0.0242,-0.0233,-0.0217,-0.016,-0.0149,-0.0192,-0.0104,-0.0093,-0.0056,-0.0057,-0.0042,-0.0038,0.0044,0.0044,0.0044,-0.001,0,0,0,0,0,0,-0.0349,-0.0344,-0.0348,-0.0304,-0.0293,-0.0272,-0.0242,-0.0232,-0.0213,-0.0209,-0.015,-0.014,-0.0103,-0.0062,-0.0052,-0.0051,-0.0035,0.0044,0.0044,0.0044,-0.0008,-0.0012,-0.0015,0,0,0,0,0,-0.0351,-0.0363,-0.0349,-0.0344,-0.0301,-0.0272,-0.0264,-0.0228,-0.0214,-0.0211,-0.0168,-0.0142,-0.0055,-0.0059,-0.0047,-0.0045,0.0044,0.0044,0.0044,-0.0007,-0.0011,-0.0015,0,0,0,0,0,0,-0.0391,-0.0357,-0.0341,-0.0342,-0.0313,-0.0264,-0.026,-0.0234,-0.0198,-0.0195,-0.014,-0.0126,-0.0096,-0.0063,-0.0069,-0.002,-0.0002,0.0,-0.0045,-0.0048,-0.0052,-0.0064,-0.0032,0,0,0,0,0,-0.0403,-0.0403,-0.0361,-0.0363,-0.0352,-0.0307,-0.0292,-0.0267,-0.0229,-0.0213,-0.017,-0.0126,-0.0087,-0.0063,-0.0027,0.0002,0.0039,0.001,0.0007,0.0004,0.0001,0.0058,0.0059,0.0043,0.0043,0.0043,0,0,-0.0418,-0.0401,-0.04,-0.0372,-0.0347,-0.0337,-0.0297,-0.0281,-0.0267,-0.0207,-0.018,-0.0139,-0.0083,-0.0052,-0.0035,-0.0024,0.0027,0.0003,0.0,0.0,0.0058,0.0059,0.0061,0.0043,0.0043,0.0043,0,0,-0.0457,-0.0435,-0.045,-0.0427,-0.0397,-0.0365,-0.0364,-0.0318,-0.0293,-0.0262,-0.0215,-0.0172,-0.0117,-0.0072,-0.0043,-0.0043,0.0003,-0.0036,-0.0057,-0.0002,-0.0001,0.0001,0.0047,0.0053,-0.0033,-0.0033,-0.0033,0,-0.048,-0.0489,-0.0449,-0.0454,-0.0441,-0.0383,-0.0391,-0.0354,-0.0301,-0.0279,-0.0263,-0.0169,-0.0125,-0.0073,-0.0073,-0.005,-0.0017,-0.0047,-0.0007,-0.0004,-0.0001,0.0045,0.0053,-0.0036,-0.0035,-0.0035,-0.0035,0,-0.0525,-0.0529,-0.0535,-0.0521,-0.0499,-0.0497,-0.0442,-0.0417,-0.0379,-0.0336,-0.0282,-0.0214,-0.0157,-0.0136,-0.0103,-0.0059,-0.0042,-0.0023,0.0001,-0.0003,0.0046,0.0055,-0.0039,-0.0038,-0.0038,-0.0037,0,0,-0.0583,-0.0573,-0.0575,-0.0584,-0.0536,-0.0528,-0.0497,-0.0455,-0.0435,-0.0371,-0.0338,-0.0261,-0.0218,-0.0182,-0.0129,-0.0077,-0.0026,-0.0047,-0.0043,-0.0007,0.0088,0.0139,0.0154,-0.0001,-0.0,0.0001,0.0112,0,-0.0633,-0.0672,-0.0639,-0.0661,-0.0674,-0.0607,-0.0583,-0.053,-0.0473,-0.0423,-0.0332,-0.0284,-0.0236,-0.0209,-0.0149,-0.0054,-0.0004,-0.0059,0.0091,0.0095,0.0138,0.0166,0.0128,0.0228,0.0121,0.0123,0.0124,0,-0.0687,-0.0707,-0.0747,-0.074,-0.0737,-0.0729,-0.0681,-0.0652,-0.0553,-0.0508,-0.0429,-0.0353,-0.0257,-0.0224,-0.0062,-0.01,-0.0017,0.0056,0.0062,0.0136,0.0164,0.0216,0.0249,0.014,0.0139,0.0137,0.0136,0,-0.076,-0.0778,-0.0819,-0.0816,-0.0793,-0.0788,-0.0764,-0.0681,-0.0657,-0.0557,-0.0525,-0.0395,-0.0328,-0.0205,-0.0042,-0.0054,0.0137,0.0141,0.0265,0.0269,0.028,0.0284,0.0244,0.0244,0.0243,0.0243,0.0243,0,-0.0827,-0.0857,-0.086,-0.0881,-0.0919,-0.0864,-0.0868,-0.082,-0.0742,-0.0713,-0.0579,-0.0521,-0.0321,-0.018,-0.0049,0.0151,0.0137,0.0271,0.0308,0.026,0.0261,0.0217,0.0213,0.0247,0.0246,0.0246,0.0245,0,-0.0899,-0.0901,-0.0952,-0.0954,-0.0958,-0.0983,-0.0954,-0.0948,-0.0862,-0.0816,-0.0788,-0.0605,-0.0407,-0.0199,0.0025,0.0146,0.0323,0.0389,0.0321,0.0349,0.0414,0.0406,0.0536,0.0539,0.0541,0.0543,0.0545,0,-0.0941,-0.0976,-0.1022,-0.106,-0.1065,-0.1086,-0.1094,-0.1023,-0.1006,-0.0867,-0.085,-0.064,-0.0477,-0.011,0.0145,0.0409,0.0396,0.0514,0.0489,0.0425,0.0448,0.0435,0.0424,0.0478,0.0479,0.048,0.048,0,-0.1019,-0.1033,-0.1077,-0.1161,-0.1195,-0.1228,-0.1227,-0.1231,-0.1131,-0.1061,-0.0922,-0.0773,-0.0394,-0.0076,0.0283,0.0417,0.0474,0.054,0.0507,0.0412,0.0381,0.0399,0.0388,0.0488,0.0487,0.0486,0.0486,0.0486,-0.1068,-0.1126,-0.1185,-0.1261,-0.1309,-0.135,-0.1374,-0.1336,-0.1294,-0.1155,-0.0995,-0.0742,-0.0404,0.0109,0.0362,0.0583,0.0574,0.0618,0.0611,0.0604,0.058,0.0556,0.069,0.0691,0.0691,0.0691,0.0692,0,-0.113,-0.1194,-0.1279,-0.1362,-0.1428,-0.1426,-0.1449,-0.1425,-0.137,-0.1184,-0.1002,-0.0634,-0.0252,0.0079,0.0449,0.0679,0.0635,0.0697,0.0603,0.0595,0.0588,0.0558,0.0665,0.0666,0.0666,0.0667,0,0,-0.1164,-0.1263,-0.1311,-0.144,-0.1498,-0.1557,-0.1571,-0.1492,-0.1361,-0.1166,-0.0966,-0.0666,-0.0244,0.0014,0.0313,0.0504,0.0477,0.0503,0.0501,0.0348,0.0338,0.0523,0.0468,0,0,0,0,0]}],[{"header":{"parameterUnit":"m.s-1","parameterCategory":2,"la1":30.2991,"la2":30.254,"lo1":-89.0895,"lo2":-89.0444,"dy":0.0017,"dx":0.0017,"nx":28,"ny":28,"refTime":"2023-11-14T03:00:00:Z","depth":"4","parameterNumber":2,"parameterNumberName":"U-component_of_CURRENTS"},"data":[0,0,0,0,0,0,0,0,0,0,0,0,0,0,0,0,0,0,0,0,0,0,0,0,0,0,0,0,0,0,0,0,0,0,0,0,0,0,0,0,0,0,0,0,0,0,0,0,0,0,0,0,0,0,0,0,0,0,-0.1786,-0.1786,0,-0.1852,-0.1852,-0.1853,-0.1895,-0.1896,-0.1896,-0.1896,-0.1955,-0.1956,-0.1957,0,0,0,0,0,0,0,0,0,0,0,0,0,-0.1691,-0.1693,-0.1785,-0.1786,-0.1787,-0.1851,-0.1852,-0.1853,-0.1895,-0.1896,-0.1896,-0.1897,-0.1954,-0.1956,-0.1957,0,0,0,0,0,0,0,0,0,0,0,0,0,-0.174,-0.1693,-0.1785,-0.1818,-0.1821,-0.1851,-0.1852,-0.1853,-0.1895,-0.1896,-0.1896,-0.1897,-0.1954,-0.1955,-0.1957,-0.1954,0,0,-0.1962,-0.1963,0,0,0,0,0,0,0,0,-0.1737,-0.1743,-0.1812,-0.1816,-0.182,-0.1868,-0.184,-0.1887,-0.1895,-0.1865,-0.1897,-0.1897,-0.1926,-0.193,-0.1938,-0.1957,-0.1959,-0.1962,-0.1963,-0.1964,-0.1965,0,0,0,0,0,0,0,-0.1734,-0.1741,-0.181,-0.1813,-0.1818,-0.1828,-0.1835,-0.1849,-0.1889,-0.1868,-0.1871,-0.1882,-0.1927,-0.1936,-0.1939,-0.196,-0.1962,-0.1964,-0.1965,-0.1966,-0.2065,-0.2067,0,0,0,0,0,0,-0.173,-0.1738,-0.1808,-0.1812,-0.1782,-0.1829,-0.1837,-0.185,-0.1889,-0.1896,-0.1881,-0.1883,-0.1933,-0.1937,-0.1942,-0.2026,-0.1964,-0.1966,-0.1967,-0.2063,-0.2065,-0.2067,0,0,0,0,0,0,-0.1727,-0.1735,-0.1805,-0.1778,-0.1787,-0.183,-0.1844,-0.1851,-0.1892,-0.19,-0.1907,-0.1919,-0.1934,-0.1939,-0.1986,-0.2026,-0.1967,-0.1968,-0.2061,-0.2064,-0.2066,-0.214,0,0,0,0,0,0,-0.1724,-0.1734,-0.1757,-0.1777,-0.1789,-0.1848,-0.1844,-0.1852,-0.1897,-0.1901,-0.1934,-0.1938,-0.1934,-0.1984,-0.1988,-0.2027,-0.1969,-0.2059,-0.2063,-0.2065,-0.2136,-0.2145,-0.2153,0,0,0,0,0,-0.1721,-0.1745,-0.1757,-0.1767,-0.1814,-0.1849,-0.1857,-0.1887,-0.1898,-0.1925,-0.1948,-0.1939,-0.2006,-0.1987,-0.1991,-0.2031,-0.2058,-0.2062,-0.2065,-0.2132,-0.2143,-0.2153,0,0,0,0,0,0,-0.1717,-0.1752,-0.1766,-0.1801,-0.1835,-0.1858,-0.1888,-0.1906,-0.1945,-0.1958,-0.196,-0.1967,-0.2022,-0.2016,-0.1994,-0.2068,-0.203,-0.2035,-0.208,-0.209,-0.2098,-0.2091,-0.1971,0,0,0,0,0,-0.1725,-0.1754,-0.1787,-0.1818,-0.1838,-0.1869,-0.1893,-0.1916,-0.1945,-0.1965,-0.1988,-0.2011,-0.2035,-0.2055,-0.2073,-0.2114,-0.2094,-0.2142,-0.215,-0.2158,-0.2155,-0.216,-0.2168,-0.2079,-0.2079,-0.2079,0,0,-0.1733,-0.1756,-0.1774,-0.182,-0.1848,-0.1888,-0.1886,-0.1935,-0.1975,-0.1964,-0.2032,-0.2045,-0.2053,-0.2101,-0.2125,-0.2105,-0.2175,-0.2162,-0.2169,-0.2162,-0.2165,-0.2173,-0.2181,-0.2082,-0.2081,-0.2081,0,0,-0.1751,-0.1785,-0.1814,-0.1849,-0.1901,-0.1922,-0.1944,-0.199,-0.2022,-0.208,-0.2083,-0.2119,-0.2162,-0.2172,-0.2181,-0.2246,-0.222,-0.226,-0.2299,-0.2305,-0.2312,-0.2318,-0.231,-0.2315,-0.2264,-0.2264,-0.2264,0,-0.1761,-0.18,-0.1829,-0.1869,-0.1904,-0.1942,-0.1985,-0.2023,-0.2081,-0.2108,-0.2115,-0.2183,-0.2192,-0.2238,-0.2262,-0.2265,-0.2259,-0.2261,-0.2315,-0.2321,-0.2325,-0.2316,-0.232,-0.2268,-0.2268,-0.2267,-0.2267,0,-0.1791,-0.184,-0.1863,-0.1925,-0.1967,-0.2013,-0.2065,-0.2118,-0.216,-0.2189,-0.2257,-0.2272,-0.2306,-0.2322,-0.2313,-0.2359,-0.2341,-0.2325,-0.2287,-0.2338,-0.2326,-0.2328,-0.2274,-0.2272,-0.2271,-0.227,0,0,-0.1764,-0.1865,-0.1877,-0.1921,-0.2004,-0.2038,-0.2115,-0.2182,-0.2231,-0.2289,-0.2341,-0.2389,-0.2395,-0.2404,-0.2405,-0.2412,-0.2443,-0.2389,-0.2387,-0.2377,-0.2451,-0.2296,-0.2284,-0.2441,-0.2441,-0.2442,-0.2431,0,-0.1781,-0.1859,-0.191,-0.1996,-0.2041,-0.2109,-0.2174,-0.2243,-0.2297,-0.2358,-0.2386,-0.2435,-0.2428,-0.2448,-0.246,-0.2446,-0.2453,-0.2447,-0.2406,-0.2404,-0.2256,-0.2283,-0.2445,-0.2433,-0.2433,-0.2433,-0.2434,0,-0.1784,-0.1841,-0.1925,-0.2035,-0.2063,-0.2124,-0.2229,-0.229,-0.2376,-0.2419,-0.2471,-0.249,-0.2526,-0.2504,-0.2513,-0.2512,-0.249,-0.2473,-0.2471,-0.2298,-0.2254,-0.2369,-0.2438,-0.2438,-0.2438,-0.2437,-0.2437,0,-0.173,-0.1849,-0.1917,-0.1957,-0.2085,-0.2142,-0.221,-0.2308,-0.2362,-0.2452,-0.2492,-0.254,-0.2565,-0.2554,-0.2528,-0.2527,-0.2515,-0.2506,-0.2347,-0.2336,-0.2447,-0.244,-0.2504,-0.2504,-0.2504,-0.2504,-0.2504,0,-0.1707,-0.1767,-0.1905,-0.1942,-0.2028,-0.2125,-0.2215,-0.2289,-0.2387,-0.243,-0.2514,-0.2536,-0.258,-0.2578,-0.2543,-0.2442,-0.2528,-0.2346,-0.2319,-0.248,-0.2477,-0.2449,-0.2442,-0.2504,-0.2504,-0.2504,-0.2504,0,-0.1626,-0.1723,-0.1807,-0.1954,-0.2004,-0.2061,-0.2207,-0.2255,-0.237,-0.2425,-0.2454,-0.2545,-0.2534,-0.2548,-0.2526,-0.2443,-0.2372,-0.2317,-0.2486,-0.247,-0.2189,-0.2187,-0.2134,-0.2128,-0.2123,-0.2119,-0.2116,0,-0.1587,-0.1624,-0.1787,-0.1834,-0.1905,-0.2012,-0.2073,-0.2221,-0.2256,-0.2397,-0.2389,-0.2452,-0.2482,-0.2331,-0.2364,-0.2287,-0.2259,-0.2215,-0.22,-0.217,-0.215,-0.2156,-0.216,-0.2108,-0.2107,-0.2106,-0.2105,0,-0.1498,-0.157,-0.1635,-0.1732,-0.1814,-0.1891,-0.1984,-0.2007,-0.2149,-0.2281,-0.2265,-0.2256,-0.2245,-0.2217,-0.2176,-0.2121,-0.2237,-0.2165,-0.2175,-0.216,-0.2139,-0.2125,-0.2135,-0.2088,-0.2091,-0.2092,-0.2093,0,-0.1423,-0.1442,-0.1532,-0.1598,-0.1694,-0.1721,-0.1808,-0.1848,-0.1914,-0.2073,-0.2059,-0.2127,-0.222,-0.213,-0.2084,-0.2023,-0.199,-0.1921,-0.1943,-0.1962,-0.1907,-0.1855,-0.1684,0,0,0,0,0,-0.1334,-0.1335,-0.1387,-0.1454,-0.1539,-0.1586,-0.1713,-0.1799,-0.195,-0.1884,-0.1968,-0.1946,-0.1906,-0.1944,-0.1838,-0.1991,-0.199,-0.186,-0.1921,-0.1996,-0.2015,-0.1965,0,0,0,0,0,0,-0.1275,-0.1314,-0.1331,-0.1303,-0.1316,-0.1388,-0.1462,-0.1574,-0.155,-0.1712,-0.1696,-0.1813,-0.1796,-0.1922,-0.179,-0.1798,-0.1793,-0.191,-0.1905,-0.1985,-0.2003,-0.2018,-0.1973,0,0,0,0,0]},{"header":{"parameterUnit":"m.s-1","parameterCategory":2,"la1":30.2991,"la2":30.254,"lo1":-89.0895,"lo2":-89.0444,"dy":0.0017,"dx":0.0017,"nx":28,"ny":28,"refTime":"2023-11-14T03:00:00:Z","depth":"4","parameterNumber":3,"parameterNumberName":"V-component_of_CURRENTS"},"data":[0,0,0,0,0,0,0,0,0,0,0,0,0,0,0,0,0,0,0,0,0,0,0,0,0,0,0,0,0,0,0,0,0,0,0,0,0,0,0,0,0,0,0,0,0,0,0,0,0,0,0,0,0,0,0,0,0,0,-0.0177,-0.0177,0,-0.0127,-0.0126,-0.0126,-0.0092,-0.0092,-0.0092,-0.0092,-0.0011,-0.0009,-0.0007,0,0,0,0,0,0,0,0,0,0,0,0,0,-0.0202,-0.0202,-0.0177,-0.0177,-0.0176,-0.0127,-0.0126,-0.0126,-0.0092,-0.0092,-0.0092,-0.0091,-0.0011,-0.0009,-0.0007,0,0,0,0,0,0,0,0,0,0,0,0,0,-0.0174,-0.0202,-0.0178,-0.0154,-0.0152,-0.0127,-0.0126,-0.0125,-0.0092,-0.0092,-0.0092,-0.0091,-0.0012,-0.0009,-0.0006,0.0008,0,0,0.0003,0.0004,0,0,0,0,0,0,0,0,-0.0176,-0.0173,-0.0158,-0.0156,-0.0153,-0.0116,-0.0105,-0.008,-0.0092,-0.0114,-0.0092,-0.0091,-0.0044,-0.0039,-0.0028,0.0012,0.0015,0.0003,0.0005,0.0006,0.0007,0,0,0,0,0,0,0,-0.0178,-0.0175,-0.0156,-0.0158,-0.0155,-0.0132,-0.0128,-0.01,-0.0079,-0.0112,-0.0109,-0.0106,-0.0042,-0.0031,-0.0026,0.0017,0.0003,0.0006,0.0008,0.0009,0.0075,0.0075,0,0,0,0,0,0,-0.0189,-0.0177,-0.0158,-0.0155,-0.0165,-0.0132,-0.0128,-0.0128,-0.008,-0.0073,-0.0106,-0.0104,-0.0037,-0.003,-0.0023,-0.0005,0.0006,0.0009,0.0011,0.0075,0.0075,0.0075,0,0,0,0,0,0,-0.019,-0.0188,-0.016,-0.0165,-0.016,-0.0132,-0.0132,-0.0127,-0.0118,-0.0076,-0.0068,-0.0103,-0.0036,-0.0027,-0.0001,-0.0002,0.0011,0.0013,0.0075,0.0075,0.0075,0.0032,0,0,0,0,0,0,-0.0191,-0.0188,-0.0195,-0.0166,-0.0161,-0.0153,-0.0132,-0.0126,-0.0116,-0.0114,-0.0071,-0.0063,-0.0035,-0.0005,0.0002,0.0002,0.0016,0.0075,0.0075,0.0075,0.0033,0.003,0.0027,0,0,0,0,0,-0.0192,-0.0203,-0.0195,-0.0193,-0.017,-0.0153,-0.0149,-0.0126,-0.0116,-0.0117,-0.0085,-0.0065,-0.0001,-0.0003,0.0006,0.0007,0.0076,0.0075,0.0075,0.0034,0.0031,0.0028,0,0,0,0,0,0,-0.0216,-0.02,-0.0191,-0.0196,-0.018,-0.0148,-0.0149,-0.0131,-0.0107,-0.0105,-0.0064,-0.0054,-0.0033,-0.0006,-0.001,0.0026,0.004,0.0042,0.0006,0.0003,0.0,-0.001,0.0018,0,0,0,0,0,-0.0226,-0.0231,-0.0207,-0.0212,-0.0207,-0.0178,-0.017,-0.0155,-0.0129,-0.0118,-0.0088,-0.0055,-0.0026,-0.0007,0.0019,0.0041,0.0073,0.0048,0.0045,0.0042,0.004,0.009,0.0092,0.0075,0.0075,0.0075,0,0,-0.0237,-0.0229,-0.0232,-0.0218,-0.0204,-0.0201,-0.0173,-0.0166,-0.0159,-0.0113,-0.0097,-0.0066,-0.0023,-0.0001,0.0012,0.0022,0.0063,0.0042,0.0039,0.0039,0.009,0.0092,0.0093,0.0075,0.0075,0.0075,0,0,-0.0266,-0.0256,-0.0271,-0.0259,-0.0243,-0.0223,-0.0224,-0.0196,-0.018,-0.016,-0.0125,-0.0093,-0.0053,-0.0018,0.0005,0.0004,0.0042,0.0009,-0.0008,0.004,0.0042,0.0044,0.0082,0.0088,0.0012,0.0012,0.0012,0,-0.0282,-0.0296,-0.0272,-0.0279,-0.0275,-0.0237,-0.0247,-0.0223,-0.0189,-0.0174,-0.0164,-0.0094,-0.006,-0.0018,-0.002,-0.0002,0.0026,0.0001,0.0037,0.0039,0.0042,0.0081,0.0087,0.001,0.001,0.001,0.001,0,-0.0317,-0.0327,-0.0334,-0.0332,-0.0321,-0.0325,-0.0289,-0.0275,-0.0252,-0.0222,-0.0183,-0.0131,-0.0088,-0.0071,-0.0045,-0.0008,0.0006,0.0023,0.0044,0.0041,0.0082,0.009,0.0007,0.0007,0.0008,0.0008,0,0,-0.0353,-0.0361,-0.0364,-0.0377,-0.0351,-0.035,-0.0333,-0.0308,-0.0298,-0.0252,-0.0229,-0.0171,-0.0137,-0.0109,-0.0066,-0.0021,0.0024,0.0005,0.0008,0.0039,0.0123,0.0116,0.0124,0.0047,0.0048,0.0049,0.0142,0,-0.039,-0.0429,-0.0412,-0.044,-0.0455,-0.0413,-0.0402,-0.0369,-0.0331,-0.0297,-0.0225,-0.0191,-0.0152,-0.0133,-0.0079,-0.0,0.0043,-0.0003,0.0124,0.0128,0.0119,0.0133,0.0053,0.0148,0.015,0.0151,0.0152,0,-0.0427,-0.0451,-0.0492,-0.0503,-0.0504,-0.0508,-0.0485,-0.047,-0.0401,-0.0369,-0.0308,-0.025,-0.017,-0.0143,-0.0004,-0.0037,0.0034,0.0096,0.0101,0.0115,0.0135,0.0154,0.0167,0.0166,0.0165,0.0164,0.0163,0,-0.0472,-0.0503,-0.0545,-0.0548,-0.0549,-0.0556,-0.0549,-0.0496,-0.0485,-0.0413,-0.0392,-0.0285,-0.0232,-0.0124,0.0009,0.0002,0.0162,0.0171,0.0231,0.0231,0.0229,0.0226,0.026,0.026,0.026,0.0259,0.0259,0,-0.0512,-0.0545,-0.0576,-0.0597,-0.0644,-0.0615,-0.0634,-0.0606,-0.0558,-0.054,-0.0438,-0.0393,-0.0225,-0.0109,0.0003,0.0146,0.0162,0.0231,0.0257,0.0208,0.0201,0.0235,0.0231,0.0263,0.0262,0.0261,0.0261,0,-0.0548,-0.0568,-0.0624,-0.0653,-0.0669,-0.07,-0.0708,-0.0711,-0.0658,-0.0629,-0.061,-0.0465,-0.0309,-0.0141,0.005,0.0133,0.0271,0.0314,0.0248,0.0269,0.0307,0.03,0.0386,0.0387,0.0387,0.0388,0.0388,0,-0.0569,-0.0603,-0.0677,-0.0722,-0.0742,-0.0782,-0.0804,-0.077,-0.0764,-0.067,-0.0656,-0.05,-0.039,-0.0119,0.0052,0.0274,0.0298,0.0361,0.0334,0.0304,0.0322,0.0313,0.0306,0.0389,0.0389,0.0389,0.0389,0,-0.0606,-0.0638,-0.0685,-0.0783,-0.0834,-0.0882,-0.0905,-0.0905,-0.0847,-0.0807,-0.068,-0.0521,-0.034,-0.0122,0.0057,0.0211,0.0318,0.0367,0.0366,0.0341,0.0308,0.0323,0.0315,0.0391,0.0391,0.039,0.039,0,-0.0629,-0.0678,-0.0749,-0.0828,-0.0902,-0.0948,-0.0958,-0.0928,-0.0905,-0.079,-0.0748,-0.0535,-0.0402,-0.0154,0.0009,0.0167,0.0195,0.0227,0.0234,0.0234,0.0161,0.0096,0.0139,0,0,0,0,0,-0.0644,-0.0703,-0.0788,-0.0868,-0.0941,-0.0983,-0.1007,-0.0995,-0.0941,-0.0863,-0.0799,-0.0625,-0.0348,-0.0218,-0.0063,-0.0001,0.0206,0.0182,0.0241,0.04,0.0398,0.0338,0,0,0,0,0,0,-0.0656,-0.0739,-0.0788,-0.088,-0.0941,-0.101,-0.1029,-0.0998,-0.0939,-0.0862,-0.071,-0.061,-0.0339,-0.0438,-0.0066,-0.0016,0.0037,0.0321,0.0323,0.0401,0.0399,0.0398,0.0335,0,0,0,0,0]}]]